GW2278 Weather Reports


time (UTC)temp
C
wind
direction
speed
KPH
gust
KPH
rain 1hr
cm
rain 24hr
cm
rain mn
cm
humidity
%
barometer
mb
20260505230620 19 163 8.0 17.7 0.00 0.00 0.00 62 1007.5
20260505230115 19 205 6.4 25.7 0.00 0.00 0.00 62 1007.6
20260505225612 19 206 8.0 20.9 0.00 0.00 0.00 61 1007.2
20260505225108 19 216 4.8 29.0 0.00 0.00 0.00 61 1007.3
20260505224605 19 174 12.9 27.4 0.00 0.00 0.00 61 1007.2
20260505224102 20 208 8.0 32.2 0.00 0.00 0.00 61 1007.1
20260505223559 20 190 6.4 12.9 0.00 0.00 0.00 60 1007.1
20260505223055 20 222 19.3 24.1 0.00 0.00 0.00 60 1007.1
20260505222552 20 255 9.7 35.4 0.00 0.00 0.00 59 1007.0
20260505222048 20 220 11.3 25.7 0.00 0.00 0.00 59 1007.1
20260505221546 20 209 11.3 27.4 0.00 0.00 0.00 58 1007.2
20260505221042 20 181 11.3 24.1 0.00 0.00 0.00 57 1007.1
20260505220539 21 154 14.5 24.1 0.00 0.00 0.00 57 1007.1
20260505220037 21 235 6.4 24.1 0.00 0.00 0.00 57 1007.4
20260505215535 21 128 11.3 20.9 0.00 0.00 0.00 56 1007.4
20260505215032 21 240 14.5 25.7 0.00 0.00 0.00 56 1007.3
20260505214530 21 201 9.7 27.4 0.00 0.00 0.00 55 1007.2
20260505214027 21 227 4.8 17.7 0.00 0.00 0.00 55 1007.2
20260505213525 22 214 11.3 11.3 0.00 0.00 0.00 55 1007.2
20260505213021 22 179 8.0 16.1 0.00 0.00 0.00 55 1007.1
20260505212517 21 178 6.4 22.5 0.00 0.00 0.00 55 1007.2
20260505212014 21 143 8.0 22.5 0.00 0.00 0.00 55 1007.2
20260505211512 22 196 3.2 17.7 0.00 0.00 0.00 55 1007.3
20260505211008 22 224 9.7 24.1 0.00 0.00 0.00 54 1007.1
20260505210505 22 224 4.8 14.5 0.00 0.00 0.00 55 1007.1
20260505210002 23 203 14.5 20.9 0.00 0.00 0.00 52 1007.1
20260505205500 23 174 8.0 20.9 0.00 0.00 0.00 53 1007.0
20260505204956 22 267 9.7 33.8 0.00 0.00 0.00 52 1006.9
20260505204455 23 211 4.8 20.9 0.00 0.00 0.00 53 1007.1
20260505203951 23 183 19.3 30.6 0.00 0.00 0.00 53 1007.0
20260505203448 23 207 11.3 20.9 0.00 0.00 0.00 53 1007.0
20260505202944 23 205 9.7 30.6 0.00 0.00 0.00 52 1007.2
20260505202441 23 132 9.7 22.5 0.00 0.00 0.00 50 1007.2
20260505201937 23 200 9.7 37.0 0.00 0.00 0.00 50 1007.0
20260505201434 23 175 22.5 43.5 0.00 0.00 0.00 50 1007.2
20260505200932 23 217 8.0 25.7 0.00 0.00 0.00 50 1007.0
20260505200429 23 179 19.3 40.2 0.00 0.00 0.00 49 1007.0
20260505195925 23 207 9.7 30.6 0.00 0.00 0.00 50 1007.0
20260505195422 23 174 24.1 24.1 0.00 0.00 0.00 50 1006.8
20260505194920 23 179 14.5 35.4 0.00 0.00 0.00 50 1006.9
20260505194417 23 201 16.1 22.5 0.00 0.00 0.00 51 1007.2
20260505193917 24 213 16.1 32.2 0.00 0.00 0.00 50 1007.3
20260505193415 25 201 8.0 37.0 0.00 0.00 0.00 49 1007.2
20260505192912 26 186 11.3 12.9 0.00 0.00 0.00 46 1007.2
20260505192410 25 208 11.3 19.3 0.00 0.00 0.00 48 1007.3
20260505191908 24 222 8.0 27.4 0.00 0.00 0.00 48 1007.1
20260505191406 25 207 11.3 33.8 0.00 0.00 0.00 47 1007.2
20260505190903 25 186 19.3 32.2 0.00 0.00 0.00 46 1007.1
20260505190358 25 209 27.4 29.0 0.00 0.00 0.00 46 1007.2
20260505185853 25 245 4.8 46.7 0.00 0.00 0.00 46 1007.3
20260505185350 25 202 19.3 25.7 0.00 0.00 0.00 46 1007.4
20260505184847 25 208 14.5 37.0 0.00 0.00 0.00 45 1007.3
20260505184344 25 189 16.1 30.6 0.00 0.00 0.00 45 1007.4
20260505183841 25 220 12.9 27.4 0.00 0.00 0.00 46 1007.3
20260505183337 25 233 14.5 25.7 0.00 0.00 0.00 46 1007.4
20260505182834 25 176 4.8 20.9 0.00 0.00 0.00 47 1007.4
20260505182331 25 165 16.1 22.5 0.00 0.00 0.00 45 1007.5
20260505181828 25 236 25.7 30.6 0.00 0.00 0.00 47 1007.3
20260505181325 25 179 17.7 27.4 0.00 0.00 0.00 46 1007.4
20260505180821 25 206 8.0 38.6 0.00 0.00 0.00 47 1007.5
20260505180318 25 192 9.7 35.4 0.00 0.00 0.00 45 1007.7
20260505175814 25 92 4.8 35.4 0.00 0.00 0.00 46 1007.4
20260505175311 25 230 17.7 22.5 0.00 0.00 0.00 47 1007.6
20260505174808 25 151 11.3 22.5 0.00 0.00 0.00 47 1007.5
20260505174305 25 236 16.1 22.5 0.00 0.00 0.00 47 1007.6
20260505173801 25 159 9.7 17.7 0.00 0.00 0.00 50 1007.5
20260505173257 25 217 4.8 25.7 0.00 0.00 0.00 48 1007.7
20260505172754 24 197 9.7 19.3 0.00 0.00 0.00 49 1008.1
20260505172252 25 199 12.9 19.3 0.00 0.00 0.00 50 1008.1
20260505171747 24 168 6.4 19.3 0.00 0.00 0.00 49 1007.7
20260505171244 24 205 11.3 24.1 0.00 0.00 0.00 49 1008.0
20260505170740 25 145 1.6 19.3 0.00 0.00 0.00 52 1008.0
20260505170237 24 230 6.4 17.7 0.00 0.00 0.00 48 1008.0
20260505165732 24 203 4.8 11.3 0.00 0.00 0.00 50 1008.1
20260505165229 25 198 9.7 11.3 0.00 0.00 0.00 48 1008.3
20260505164724 24 191 11.3 27.4 0.00 0.00 0.00 47 1008.3
20260505164221 24 218 6.4 19.3 0.00 0.00 0.00 49 1008.2
20260505163720 24 208 8.0 22.5 0.00 0.00 0.00 48 1008.4
20260505163218 24 205 9.7 16.1 0.00 0.00 0.00 49 1008.4
20260505162715 23 187 16.1 24.1 0.00 0.00 0.00 49 1008.9
20260505162212 23 269 6.4 16.1 0.00 0.00 0.00 51 1008.6
20260505161709 23 181 11.3 24.1 0.00 0.00 0.00 50 1008.8
20260505161207 23 232 11.3 25.7 0.00 0.00 0.00 49 1008.8
20260505160704 23 183 9.7 24.1 0.00 0.00 0.00 50 1008.8
20260505160201 23 195 4.8 19.3 0.00 0.00 0.00 50 1008.7
20260505153140 23 196 11.3 32.2 0.00 0.00 0.00 52 1009.4
20260505152637 22 171 3.2 24.1 0.00 0.00 0.00 55 1009.3
20260505152133 22 221 14.5 14.5 0.00 0.00 0.00 55 1009.2
20260505151628 21 214 9.7 16.1 0.00 0.00 0.00 58 1009.5
20260505151126 21 160 8.0 17.7 0.00 0.00 0.00 60 1009.4
20260505150622 21 158 12.9 14.5 0.00 0.00 0.00 58 1009.5
20260505150119 21 234 8.0 14.5 0.00 0.00 0.00 62 1009.2
20260505140548 18 126 3.2 11.3 0.00 0.00 0.00 69 1009.2
20260505125001 15 242 3.2 9.7 0.00 0.00 0.00 77 1009.5
20260505124458 15 212 0.0 6.4 0.00 0.00 0.00 79 1009.7
20260505123954 15 180 6.4 12.9 0.00 0.00 0.00 80 1009.8
20260505123451 14 123 6.4 8.0 0.00 0.00 0.00 82 1009.5
20260505122947 13 123 3.2 9.7 0.00 0.00 0.00 84 1009.7
20260505122444 13 142 4.8 6.4 0.00 0.00 0.00 85 1009.5
20260505121941 13 244 3.2 8.0 0.00 0.00 0.00 86 1009.7
20260505121438 13 214 8.0 11.3 0.00 0.00 0.00 87 1009.7
20260505120933 12 184 4.8 8.0 0.00 0.00 0.00 89 1009.5
20260505120430 12 141 1.6 12.9 0.00 0.00 0.00 89 1009.7
20260505115929 12 140 6.4 11.3 0.00 0.00 0.00 91 1009.6
20260505115426 11 161 9.7 16.1 0.00 0.00 0.00 92 1009.7
20260505114924 11 220 8.0 9.7 0.00 0.00 0.00 92 1009.9
20260505114420 11 145 8.0 11.3 0.00 0.00 0.00 93 1009.6
20260505113916 11 138 3.2 9.7 0.00 0.00 0.00 93 1009.7
20260505113413 11 173 3.2 14.5 0.00 0.00 0.00 94 1009.8
20260505112909 11 190 9.7 11.3 0.00 0.00 0.00 94 1010.0
20260505112407 11 211 4.8 12.9 0.00 0.00 0.00 95 1009.5
20260505111903 10 152 4.8 9.7 0.00 0.00 0.00 95 1009.3
20260505111357 10 127 4.8 12.9 0.00 0.00 0.00 96 1009.6
20260505110854 10 120 4.8 11.3 0.00 0.00 0.00 96 1009.3
20260505110351 10 193 9.7 11.3 0.00 0.00 0.00 96 1009.2
20260505101821 10 130 3.2 11.3 0.00 0.00 0.00 97 1009.1
20260505101316 10 144 3.2 6.4 0.00 0.00 0.00 97 1009.0
20260505100813 9 180 6.4 11.3 0.00 0.00 0.00 97 1009.0
20260505100309 9 72 0.0 6.4 0.00 0.00 0.00 96 1008.8
20260505095805 9 145 3.2 8.0 0.00 0.00 0.00 96 1008.9
20260505095304 9 145 3.2 9.7 0.00 0.00 0.00 96 1008.9
20260505094758 9 139 1.6 6.4 0.00 0.00 0.00 96 1008.9
20260505094255 9 178 3.2 8.0 0.00 0.00 0.00 96 1008.8
20260505093751 9 123 4.8 9.7 0.00 0.00 0.00 96 1008.8
20260505093249 9 152 1.6 8.0 0.00 0.00 0.00 96 1008.6
20260505092745 9 115 3.2 8.0 0.00 0.00 0.00 95 1009.0
20260505092238 9 132 1.6 4.8 0.00 0.00 0.00 95 1008.8
20260505091735 9 138 1.6 8.0 0.00 0.00 0.00 95 1008.9
20260505091233 9 168 1.6 6.4 0.00 0.00 0.00 95 1008.7
20260505090730 9 144 3.2 6.4 0.00 0.00 0.00 95 1008.7
20260505090229 8 101 4.8 6.4 0.00 0.00 0.00 95 1009.0
20260505085726 8 115 4.8 6.4 0.00 0.00 0.00 95 1008.9
20260505085224 8 105 4.8 6.4 0.00 0.00 0.00 95 1008.7
20260505084721 8 128 4.8 6.4 0.00 0.00 0.00 94 1008.9
20260505084220 8 33 1.6 4.8 0.00 0.00 0.00 94 1009.0
20260505083716 9 91 4.8 8.0 0.00 0.00 0.00 94 1008.9
20260505083213 9 85 1.6 4.8 0.00 0.00 0.00 94 1009.0
20260505082709 9 131 4.8 6.4 0.00 0.00 0.00 94 1008.9
20260505082207 9 113 3.2 4.8 0.00 0.00 0.00 94 1009.1
20260505081702 9 93 3.2 4.8 0.00 0.00 0.00 93 1008.9
20260505081200 8 134 3.2 8.0 0.00 0.00 0.00 93 1009.0
20260505080657 8 146 1.6 6.4 0.00 0.00 0.00 93 1009.1
20260505080152 9 72 0.0 4.8 0.00 0.00 0.00 92 1009.1
20260505075649 9 92 1.6 4.8 0.00 0.00 0.00 92 1009.1
20260505075146 9 96 0.0 4.8 0.00 0.00 0.00 91 1008.9
20260505074643 9 78 1.6 6.4 0.00 0.00 0.00 91 1009.2
20260505074139 9 35 1.6 4.8 0.00 0.00 0.00 91 1009.4
20260505073637 10 117 0.0 6.4 0.00 0.00 0.00 90 1009.1
20260505073135 10 146 3.2 11.3 0.00 0.00 0.00 90 1009.1
20260505072630 10 164 3.2 8.0 0.00 0.00 0.00 90 1009.1
20260505072127 10 161 3.2 9.7 0.00 0.00 0.00 89 1009.2
20260505071623 10 160 4.8 11.3 0.00 0.00 0.00 89 1009.1
20260505071121 10 137 3.2 6.4 0.00 0.00 0.00 89 1009.2
20260505070618 10 146 4.8 6.4 0.00 0.00 0.00 88 1009.3
20260505070114 10 103 3.2 4.8 0.00 0.00 0.00 88 1009.3
20260505065610 10 117 4.8 6.4 0.00 0.00 0.00 88 1009.2
20260505065107 10 118 3.2 6.4 0.00 0.00 0.00 87 1009.2
20260505064604 10 123 3.2 8.0 0.00 0.00 0.00 87 1009.2
20260505064103 10 119 4.8 8.0 0.00 0.00 0.00 87 1009.2
20260505063559 10 115 3.2 6.4 0.00 0.00 0.00 87 1009.2
20260505063055 9 113 4.8 6.4 0.00 0.00 0.00 87 1009.1
20260505062552 9 84 4.8 6.4 0.00 0.00 0.00 87 1009.4
20260505062049 9 104 3.2 4.8 0.00 0.00 0.00 86 1009.5
20260505061546 9 99 1.6 4.8 0.00 0.00 0.00 86 1009.5
20260505061044 10 113 4.8 6.4 0.00 0.00 0.00 86 1009.3
20260505060541 10 89 0.0 4.8 0.00 0.00 0.00 85 1009.5
20260505060038 10 118 1.6 6.4 0.00 0.00 0.00 85 1009.4
20260505055533 10 96 3.2 6.4 0.00 0.00 0.00 85 1009.6
20260505055030 10 82 3.2 3.2 0.00 0.00 0.00 85 1009.6
20260505054527 10 77 3.2 6.4 0.00 0.00 0.00 84 1009.4
20260505054026 10 96 3.2 4.8 0.00 0.00 0.00 84 1009.6
20260505053522 10 102 4.8 6.4 0.00 0.00 0.00 84 1009.6
20260505053019 10 61 3.2 6.4 0.00 0.00 0.00 84 1009.7
20260505052516 10 108 6.4 8.0 0.00 0.00 0.00 84 1009.4
20260505052014 10 98 4.8 6.4 0.00 0.00 0.00 83 1009.7
20260505051510 10 96 3.2 4.8 0.00 0.00 0.00 83 1009.8
20260505051009 10 98 3.2 6.4 0.00 0.00 0.00 83 1009.9
20260505050506 10 86 4.8 6.4 0.00 0.00 0.00 82 1009.9
20260505041434 10 118 3.2 4.8 0.00 0.00 0.00 80 1010.0
20260505040931 10 212 0.0 8.0 0.00 0.00 0.00 80 1009.9
20260505040429 10 148 4.8 6.4 0.00 0.00 0.00 80 1010.0
20260505035925 10 174 6.4 9.7 0.00 0.00 0.00 80 1009.9
20260505035421 10 155 0.0 8.0 0.00 0.00 0.00 80 1010.0
20260505034919 10 167 1.6 11.3 0.00 0.00 0.00 80 1009.9
20260505034415 10 137 3.2 4.8 0.00 0.00 0.00 80 1009.9
20260505033912 10 155 0.0 4.8 0.00 0.00 0.00 80 1009.8
20260505033409 10 192 8.0 11.3 0.00 0.00 0.00 80 1009.8
20260505032907 10 96 0.0 4.8 0.00 0.00 0.00 79 1009.7
20260505032403 11 187 3.2 8.0 0.00 0.00 0.00 79 1009.8
20260505031900 10 149 1.6 6.4 0.00 0.00 0.00 79 1009.7
20260505031357 11 178 1.6 8.0 0.00 0.00 0.00 79 1009.7
20260505030854 11 160 0.0 6.4 0.00 0.00 0.00 78 1010.0
20260505030350 11 173 3.2 4.8 0.00 0.00 0.00 78 1009.9
20260505025846 11 166 4.8 6.4 0.00 0.00 0.00 78 1009.9
20260505025344 11 108 3.2 8.0 0.00 0.00 0.00 77 1009.9
20260505024842 11 179 3.2 8.0 0.00 0.00 0.00 77 1009.9
20260505024339 11 177 0.0 6.4 0.00 0.00 0.00 76 1009.8
20260505023836 11 187 3.2 8.0 0.00 0.00 0.00 76 1009.8
20260505023333 11 246 4.8 8.0 0.00 0.00 0.00 76 1009.8
20260505022830 11 168 3.2 11.3 0.00 0.00 0.00 75 1009.7
20260505022327 11 140 3.2 9.7 0.00 0.00 0.00 75 1009.8
20260505021825 11 202 1.6 9.7 0.00 0.00 0.00 74 1010.2
20260505021321 11 186 1.6 9.7 0.00 0.00 0.00 74 1009.8
20260505020817 11 215 4.8 8.0 0.00 0.00 0.00 73 1009.8
20260505020313 12 164 6.4 12.9 0.00 0.00 0.00 73 1009.8
20260505015809 12 180 3.2 11.3 0.00 0.00 0.00 72 1009.8
20260505015307 12 260 3.2 14.5 0.00 0.00 0.00 71 1009.8
20260505014804 12 201 12.9 16.1 0.00 0.00 0.00 71 1009.9
20260505014301 12 162 9.7 14.5 0.00 0.00 0.00 71 1009.7
20260505013757 12 141 4.8 20.9 0.00 0.00 0.00 70 1009.7
20260505013255 12 190 1.6 9.7 0.00 0.00 0.00 70 1009.8
20260505012753 12 173 3.2 8.0 0.00 0.00 0.00 69 1009.7
20260505012250 12 238 6.4 20.9 0.00 0.00 0.00 68 1009.5
20260505011745 12 200 6.4 16.1 0.00 0.00 0.00 68 1009.5
20260505011243 12 116 1.6 19.3 0.00 0.00 0.00 67 1009.6
20260505010738 12 211 8.0 20.9 0.00 0.00 0.00 66 1009.3
20260505010235 12 211 4.8 14.5 0.00 0.00 0.00 66 1009.5
20260505005731 13 182 3.2 9.7 0.00 0.00 0.00 65 1009.4
20260505005228 13 216 11.3 17.7 0.00 0.00 0.00 65 1009.2
20260505004726 13 229 11.3 14.5 0.00 0.00 0.00 64 1009.0
20260505004222 13 294 3.2 14.5 0.00 0.00 0.00 64 1008.9
20260505003719 13 201 4.8 11.3 0.00 0.00 0.00 63 1009.0
20260505003217 13 174 8.0 17.7 0.00 0.00 0.00 63 1008.8
20260505002713 13 229 3.2 12.9 0.00 0.00 0.00 62 1008.8
20260505002211 13 235 8.0 11.3 0.00 0.00 0.00 62 1008.7
20260505001708 13 217 6.4 20.9 0.00 0.00 0.00 61 1008.3
20260505001205 13 185 11.3 19.3 0.00 0.00 0.00 61 1008.4
20260505000702 14 209 4.8 22.5 0.00 0.00 0.00 60 1008.5
20260505000200 14 142 8.0 30.6 0.00 0.00 0.00 59 1008.5
20260504235656 14 165 8.0 17.7 0.00 0.00 0.00 58 1008.4
20260504235153 15 228 6.4 12.9 0.00 0.00 0.00 58 1008.3
20260504234650 15 200 6.4 17.7 0.00 0.00 0.00 57 1008.1
20260504234147 15 242 3.2 16.1 0.00 0.00 0.00 57 1007.9
20260504233643 15 227 8.0 16.1 0.00 0.00 0.00 56 1008.0
20260504233139 15 203 9.7 14.5 0.00 0.00 0.00 55 1007.9
20260504232637 15 219 12.9 22.5 0.00 0.00 0.00 54 1008.0
20260504232133 15 161 3.2 22.5 0.00 0.00 0.00 54 1007.6
20260504231630 16 229 6.4 22.5 0.00 0.00 0.00 53 1007.5
20260504231127 16 191 17.7 32.2 0.00 0.00 0.00 52 1007.4